TimeChST,TemperatureF,Dew PointF,Humidity,Sea Level PressureIn,VisibilityMPH,Wind Direction,Wind SpeedMPH,Gust SpeedMPH,PrecipitationIn,Events,Conditions,WindDirDegrees,DateUTC
12:39 AM,82.4,75.2,79,29.83,10.0,ENE,13.8,-,N/A,,Mostly Cloudy,70,2013-09-05 14:39:00
12:54 AM,82.9,75.9,79,29.89,10.0,ENE,12.7,-,N/A,,Scattered Clouds,70,2013-09-05 14:54:00
1:54 AM,82.9,75.0,77,29.88,10.0,East,12.7,-,N/A,,Scattered Clouds,80,2013-09-05 15:54:00
2:54 AM,80.1,73.9,81,29.87,10.0,ENE,10.4,-,0.00,Rain,Light Rain,60,2013-09-05 16:54:00
3:54 AM,80.1,77.0,90,29.86,10.0,NE,6.9,-,0.04,,Partly Cloudy,50,2013-09-05 17:54:00
4:54 AM,82.0,75.9,82,29.86,10.0,East,10.4,-,N/A,,Mostly Cloudy,80,2013-09-05 18:54:00
5:54 AM,82.0,75.0,79,29.88,10.0,East,11.5,-,N/A,,Partly Cloudy,90,2013-09-05 19:54:00
6:54 AM,82.0,75.0,79,29.89,10.0,East,10.4,-,N/A,,Scattered Clouds,90,2013-09-05 20:54:00
7:54 AM,82.0,77.0,85,29.91,4.0,SE,12.7,21.9,0.00,,Haze,130,2013-09-05 21:54:00
8:54 AM,80.1,75.9,87,29.92,10.0,NE,6.9,-,0.03,,Scattered Clouds,50,2013-09-05 22:54:00
9:54 AM,82.0,78.1,88,29.92,10.0,ENE,8.1,-,0.02,,Scattered Clouds,70,2013-09-05 23:54:00
10:54 AM,82.9,79.0,88,29.91,10.0,NE,4.6,-,N/A,,Clear,50,2013-09-06 00:54:00
11:54 AM,84.9,78.1,80,29.91,10.0,ENE,11.5,-,N/A,,Partly Cloudy,60,2013-09-06 01:54:00
12:54 PM,84.0,78.1,82,29.89,10.0,NE,11.5,-,N/A,,Mostly Cloudy,40,2013-09-06 02:54:00
1:08 PM,78.8,73.4,83,29.84,1.8,East,10.4,20.7,0.03,Rain,Heavy Rain,90,2013-09-06 03:08:00
1:32 PM,77.0,75.2,94,29.85,0.5,North,8.1,-,1.13,Fog-Rain,Heavy Rain,10,2013-09-06 03:32:00
1:37 PM,77.0,75.2,94,29.85,1.0,NNE,12.7,18.4,1.14,Rain,Light Rain,30,2013-09-06 03:37:00
1:39 PM,77.0,75.2,94,29.85,3.0,NNE,15.0,18.4,1.15,Rain,Light Rain,30,2013-09-06 03:39:00
1:54 PM,77.0,75.0,94,29.91,10.0,NE,20.7,24.2,1.15,Rain,Light Rain,50,2013-09-06 03:54:00
2:08 PM,75.2,73.4,94,29.84,6.0,NNE,15.0,24.2,0.01,Rain,Light Rain,20,2013-09-06 04:08:00
2:43 PM,77.0,73.4,89,29.83,10.0,NNE,8.1,-,0.01,,Scattered Clouds,20,2013-09-06 04:43:00
2:54 PM,78.1,73.9,87,29.90,10.0,NNE,11.5,-,0.01,,Mostly Cloudy,30,2013-09-06 04:54:00
3:54 PM,79.0,75.0,88,29.88,10.0,NE,16.1,-,0.00,,Scattered Clouds,50,2013-09-06 05:54:00
4:54 PM,79.0,73.9,84,29.88,10.0,NE,10.4,-,N/A,,Clear,50,2013-09-06 06:54:00
5:54 PM,79.0,75.9,90,29.88,10.0,NE,10.4,-,N/A,,Clear,40,2013-09-06 07:54:00
6:54 PM,80.1,75.0,85,29.90,10.0,NE,16.1,-,N/A,,Clear,50,2013-09-06 08:54:00
7:54 PM,81.0,75.0,82,29.92,10.0,NE,13.8,-,N/A,,Partly Cloudy,50,2013-09-06 09:54:00
8:54 PM,81.0,75.0,82,29.91,10.0,ENE,17.3,-,N/A,,Partly Cloudy,60,2013-09-06 10:54:00
9:54 PM,81.0,75.0,82,29.93,10.0,ENE,12.7,-,N/A,,Partly Cloudy,70,2013-09-06 11:54:00
10:54 PM,81.0,75.0,82,29.92,10.0,ENE,12.7,-,N/A,,Clear,70,2013-09-06 12:54:00
11:54 PM,82.0,75.9,82,29.91,10.0,East,12.7,-,N/A,,Scattered Clouds,80,2013-09-06 13:54:00